Weather History for Fullerton, CA

Change the Weather History Date:

Wednesday, March 28, 2012

  Actual Average Record
Temperature  
Mean Temperature 60 °F 60 °F  
Max Temperature 72 °F 71 °F 94 °F (2004)
Min Temperature 48 °F 50 °F 46 °F (2007)
Degree Days  
Heating Degree Days 5 5  
Month to date heating degree days 119 155  
Since 1 July heating degree days 809 1077  
Cooling Degree Days 0 0  
Month to date cooling degree days 18 8  
Year to date cooling degree days 48 17  
Growing Degree Days 10 (Base 50)    
Moisture  
Dew Point 48 °F    
Average Humidity 62    
Maximum Humidity 80    
Minimum Humidity 44    
Precipitation  
Precipitation 0.00 in 0.04 in 1.19 in (2006)
Month to date precipitation 1.55 2.06  
Year to date precipitation 2.98 8.34  
Since 1 July precipitation 5.65 12.57  
Snow  
Snow 0.00 in - - ()
Month to date snowfall 0.0  
Year to date snowfall 0.0  
Since 1 July snowfall 0.0  
Snow Depth 0.00 in    
Sea Level Pressure  
Sea Level Pressure 30.06 in    
Wind  
Wind Speed 4 mph (South)    
Max Wind Speed 10 mph    
Max Gust Speed 16 mph    
Visibility 10 miles    
Events      
T = Trace of Precipitation, MM = Missing Value Source: NWS Daily Summary

Daily Weather History Graph

Daily Weather History Graph

Search for Another Location

Airport:

Trip Planner

Search our weather history database for the weather conditions in past years. The results will help you decide how hot, cold, wet, or windy it might be!

Date:

Astronomy

Mar. 28, 2012 Rise Set
Actual Time 6:43 AM PDT 7:10 PM PDT
Civil Twilight 6:18 AM PDT 7:35 PM PDT
Nautical Twilight 5:49 AM PDT 8:04 PM PDT
Astronomical Twilight 5:19 AM PDT 8:34 PM PDT
Moon 10:19 AM PDT (3/28) 12:02 AM PDT (3/28)
Length of Visible Light 13h 16m
Length of Day
12h 26m
Waxing Crescent, 31% of the Moon is Illuminated
Mar 28
Waxing Crescent
Mar 30
First Quarter
Apr 6
Full
Apr 13
Last Quarter
Apr 21
New

Hourly Weather History & Observations

Time (PDT) Temp. Dew Point Humidity Pressure Visibility Wind Dir Wind Speed Gust Speed Precip Events Conditions
12:53 AM 53.1 °F 44.1 °F 71% 30.09 in 10.0 mi Calm Calm - N/A   Clear
1:53 AM 51.1 °F 44.1 °F 77% 30.08 in 10.0 mi East 6.9 mph - N/A   Clear
2:53 AM 50.0 °F 43.0 °F 77% 30.07 in 10.0 mi East 3.5 mph - N/A   Clear
3:53 AM 50.0 °F 43.0 °F 77% 30.05 in 10.0 mi East 5.8 mph - N/A   Clear
4:53 AM 48.9 °F 43.0 °F 80% 30.06 in 10.0 mi Calm Calm - N/A   Clear
5:53 AM 50.0 °F 43.0 °F 77% 30.07 in 10.0 mi East 3.5 mph - N/A   Clear
6:53 AM 48.9 °F 43.0 °F 80% 30.09 in 10.0 mi Calm Calm - N/A   Clear
7:53 AM 51.1 °F 44.1 °F 77% 30.11 in 10.0 mi East 4.6 mph - N/A   Clear
8:53 AM 55.9 °F 45.0 °F 67% 30.12 in 10.0 mi East 3.5 mph - N/A   Clear
9:53 AM 60.1 °F 45.0 °F 57% 30.12 in 10.0 mi Calm Calm - N/A   Clear
10:53 AM 63.0 °F 45.0 °F 52% 30.11 in 10.0 mi Calm Calm - N/A   Clear
11:53 AM 64.9 °F 45.0 °F 48% 30.09 in 10.0 mi Calm Calm - N/A   Clear
12:53 PM 69.1 °F 46.0 °F 44% 30.07 in 10.0 mi Variable 3.5 mph - N/A   Clear
1:53 PM 70.0 °F 48.9 °F 47% 30.05 in 10.0 mi SW 9.2 mph - N/A   Clear
2:53 PM 72.0 °F 48.9 °F 44% 30.03 in 10.0 mi West 8.1 mph - N/A   Partly Cloudy
3:53 PM 70.0 °F 50.0 °F 49% 30.02 in 10.0 mi Variable 6.9 mph - N/A   Clear
4:53 PM 68.0 °F 51.1 °F 55% 30.01 in 10.0 mi Variable 4.6 mph - N/A   Clear
5:53 PM 68.0 °F 52.0 °F 56% 30.01 in 10.0 mi Variable 6.9 mph - N/A   Clear
6:53 PM 64.9 °F 52.0 °F 63% 30.02 in 10.0 mi West 4.6 mph - N/A   Clear
7:53 PM 63.0 °F 53.1 °F 70% 30.02 in 10.0 mi WNW 4.6 mph - N/A   Clear
8:53 PM 61.0 °F 53.1 °F 75% 30.05 in 10.0 mi Calm Calm - N/A   Clear
9:28 PM 60.8 °F 53.6 °F 77% 30.06 in 10.0 mi WNW 4.6 mph - N/A   Mostly Cloudy
9:53 PM 60.1 °F 54.0 °F 80% 30.07 in 10.0 mi West 5.8 mph - N/A   Overcast
10:53 PM 60.1 °F 53.1 °F 78% 30.06 in 9.0 mi Calm Calm - N/A   Overcast
11:53 PM 60.1 °F 53.1 °F 78% 30.06 in 10.0 mi SW 3.5 mph - N/A   Overcast